Retour au catalogue

STARLINK-35396

ActifCommunicationsVLEO
NORAD 65828·PAYLOAD·🇺🇸 United States

Lancé Sep 29, 2025 depuis Vandenberg Space Force Base

Loading…

Prochains Passages (prochaines 24 heures)

TLE

FraisSource: CelesTrak SupGP

Époque: Sep 15, 2026, 02:59 UTC

1 65828C 25221F   26258.12479167  .00005971  00000+0  17636-3 0  2586
2 65828  53.1573 284.8705 0001232  96.2464  28.2254 15.34393960    15

Suivez STARLINK-35396 en temps réel avec AllMySat

Download on the App Store